Location: Sungai Jaoh
(2.9167°N, 113.9167°E)
Time: 06:23:46
(UTC+00:00)

CZ-4B R/B - Pass Details

Date: 30 November 2020
Orbit: 497 x 645 km, 97.8° (Epoch: 25 January)

Event Time Altitude Azimuth Distance (km) Brightness Sun altitude
Exits shadow 20:46:39 - 15° (NNE) 2,200 6.8 -21.2°
Reaches altitude 10° 20:47:44 10° 16° (NNE) 1,743 6.3 -20.9°
Maximum altitude 20:51:29 74° 102° (ESE) 557 3.9 -20.1°
Drops below altitude 10° 20:55:24 10° 187° (S) 1,826 6.6 -19.2°
Sets 20:57:35 0° 188° (S) 2,748 7.6 -18.6°
